STARLINK-32365, 61625

Orbit data source: Space-Track

STARLINK-32365, 61625 is a payload satellite owned by SpaceX/Seattle (US) in LEO that was launched on Wed, 23 Oct 2024 UTC via an FALCON 9 launch vehicle from the Air Force Eastern Test Range (AFETR). Payload-class satellites include a variety of spacecraft equipped with specific instruments for various scientific and technological missions. These include communications satellites like Starlink; space stations such as the ISS; scientific satellites like the Hubble; Earth observation satellites from companies like Planet Labs, Umbra, and HawkEye 360; GPS; miniature CubeSats for education and research; and military/defense satellites.

Loading next visibility...
Identifier
61625, 2024-191E
Orbit
LEO
Country
Flag of USUS
Related business
Manufacturer
SpaceX/Seattle
Mission
Operational Commercial Communications
Bus & Motor
STARLINK V2M, Unknown motor
Mass
730 kg wet, ~700 kg dry
Launch date (UTC)
2024-10-23 (1 year ago)
Launch vehicle
FALCON 9
Launch site
Air Force Eastern Test Range (AFETR)
Object type
Payload
Rocket body
Debris
Shape & HBR
Box + 2 Pan, 17.7 m
Radar Cross Section
33.884 m², Large (>1 m²)

Expand to show TLE details & history
Last TLE update: 1 day ago

TLE from 1 day ago
0 STARLINK-32365
1 61625U 24191E   26034.13039368 -.00001144  00000-0 -32030-4 0  9999
2 61625  43.0024 349.4490 0001018 222.3814 137.6960 15.27595914 72256
Epoch: 2026-02-03T03:07Z
TLE epoch observation values (Epoch: 2026-02-03T03:07:46.013Z)
Latitude
0.00002°
Longitude
169.19156°
Altitude
483.294 km
Speed
7.625 km/s
True Right ascension
23h 17m 47s
True Declination
0° 00' 00"
Sunlit
Object was in daylight at epoch
Visualization orbit readout
Latitude
Unknown
Longitude
Unknown
Altitude
Unknown
Speed
Unknown
Apparent Right ascension
Unknown
Apparent Declination
Unknown
Sunlit
N/A
Visualization observer readout
Local Sidereal Time
07:26:25
Azimuth
Unknown
Elevation
Unknown
Doppler factor
Unknown
Orbital elements
Apogee altitude
485.645 km
Perigee altitude
484.248 km
Semi-major axis
6,863.083 km
Eccentricity
0.0001
Inclination
43.0024°
RAAN
349.449°
Arg. of periapsis
222.3814°
True anomaly
137.70385°
Mean anomaly
137.696°
Eccentric anomaly
137.69993°
Mean motion
3.81737 °/min
Orbital period
94.31 mins
BSTAR
-0.00003203
Loading maneuver chart data...
Computing Atmospheric mass density...
Loading historical data...
Loading historical data...
Loading historical data...
Loading historical data...
Loading historical data...
Loading historical data...
Loading historical data...

Documentation

Showing up to 5 results
|